Location: Les Jeannots
(43.2262°N, 5.5774°E)
Time: 00:16:55
(UTC+00:00)

Cosmos 2333 - Pass Details

Date: 05 July 2020
Orbit: 828 x 867 km, 70.9° (Epoch: 11 August)

Event Time Altitude Azimuth Distance (km) Brightness Sun altitude
Rises 20:28:04 0° 188° (S) 3,365 7.0 -10.4°
Reaches altitude 10° 20:30:33 10° 183° (S) 2,440 6.2 -10.7°
Maximum altitude 20:35:56 51° 109° (ESE) 1,046 4.4 -11.4°
Drops below altitude 10° 20:41:26 10° 34° (NE) 2,481 6.8 -12.1°
Sets 20:43:57 0° 30° (NNE) 3,427 7.6 -12.4°
